EDW349 LGIR-LSZH

Flight info

Callsign EDW349
Flight time N/A
Altitude 36000
Route EPALO M749 DIRMI UL613 KOR DCT DIMIS DCT VAKSU DCT IXONA DCT UNTAD DCT RESIA DCT SOPER Z50 KELIP
Aircraft A320/M-SDE3FGHIRWY/LB1

Departure

Time 2026-05-06 13:15
Airport Heraklion International Nikos Kazantzakis Airport (LGIR)

Arrival

Time N/A
Airport Zürich Airport (LSZH)
Time Latitude Longitude Altitude Speed Heading
2026-05-06 12:50 35.33852 25.17543 84 ft 0 kts 271°
2026-05-06 13:12 35.33852 25.17541 84 ft 2 kts 271°
2026-05-06 13:12 35.33884 25.17499 84 ft 8 kts 321°
2026-05-06 13:12 35.33911 25.17451 84 ft 6 kts 287°
2026-05-06 13:13 35.33918 25.17400 84 ft 9 kts 276°
2026-05-06 13:13 35.33928 25.17246 86 ft 23 kts 275°
2026-05-06 13:13 35.33942 25.17045 87 ft 25 kts 274°
2026-05-06 13:13 35.33959 25.16831 87 ft 25 kts 276°
2026-05-06 13:14 35.34020 25.16663 88 ft 16 kts 309°
2026-05-06 13:14 35.34075 25.16704 85 ft 7 kts 88°
2026-05-06 13:14 35.34071 25.16761 84 ft 6 kts 100°
2026-05-06 13:14 35.34064 25.16807 84 ft 5 kts 100°
2026-05-06 13:15 35.34045 25.16988 85 ft 55 kts 95°
2026-05-06 13:15 35.33998 25.17731 87 ft 119 kts 94°
2026-05-06 13:15 35.33920 25.18944 229 ft 153 kts 93°
2026-05-06 13:15 35.33824 25.20205 910 ft 148 kts 95°
2026-05-06 13:16 35.33834 25.21470 1485 ft 153 kts 71°
2026-05-06 13:16 35.34457 25.22582 1843 ft 171 kts 32°
2026-05-06 13:16 35.35603 25.23219 2201 ft 193 kts 24°
2026-05-06 13:16 35.36630 25.24402 2554 ft 216 kts 58°
2026-05-06 13:17 35.37282 25.26098 3156 ft 223 kts 67°
2026-05-06 13:17 35.37810 25.27893 3949 ft 225 kts 74°
2026-05-06 13:17 35.37775 25.29805 4683 ft 231 kts 111°
2026-05-06 13:17 35.36861 25.31377 5416 ft 234 kts 143°
2026-05-06 13:18 35.35341 25.32110 6163 ft 237 kts 179°
2026-05-06 13:18 35.33788 25.31612 6824 ft 238 kts 218°
2026-05-06 13:18 35.32805 25.30032 7536 ft 236 kts 257°
2026-05-06 13:18 35.32763 25.28052 8304 ft 234 kts 282°
2026-05-06 13:19 35.33030 25.26074 9129 ft 236 kts 283°
2026-05-06 13:19 35.33308 25.24085 9965 ft 238 kts 283°
2026-05-06 13:19 35.33587 25.22072 10691 ft 240 kts 282°
2026-05-06 13:19 35.33864 25.20050 11418 ft 241 kts 282°
2026-05-06 13:20 35.34155 25.18017 12160 ft 244 kts 287°
2026-05-06 13:20 35.34866 25.16055 12473 ft 263 kts 308°
2026-05-06 13:20 35.36240 25.14512 12773 ft 281 kts 330°
2026-05-06 13:20 35.38112 25.13739 13384 ft 290 kts 352°
2026-05-06 13:21 35.40149 25.13886 14065 ft 297 kts
2026-05-06 13:21 35.42210 25.14105 14733 ft 298 kts 355°
2026-05-06 13:21 35.44276 25.13730 15163 ft 308 kts 342°
2026-05-06 13:21 35.45643 25.13138 15253 ft 321 kts 338°
2026-05-06 13:22 35.47809 25.12124 15380 ft 342 kts 338°
2026-05-06 13:22 35.50092 25.11049 15505 ft 361 kts 338°
2026-05-06 13:22 35.53284 25.09549 15952 ft 376 kts 338°
2026-05-06 13:22 35.54943 25.08774 16331 ft 379 kts 338°
2026-05-06 13:23 35.57391 25.07633 16933 ft 381 kts 338°
2026-05-06 13:23 35.59882 25.06473 17558 ft 384 kts 338°
2026-05-06 13:23 35.62390 25.05304 18175 ft 387 kts 338°
2026-05-06 13:23 35.64918 25.04126 18723 ft 389 kts 338°
2026-05-06 13:24 35.67460 25.02943 19221 ft 392 kts 338°
2026-05-06 13:24 35.70026 25.01746 19731 ft 394 kts 338°
2026-05-06 13:24 35.72601 25.00543 20210 ft 397 kts 338°
2026-05-06 13:24 35.75196 24.99327 20683 ft 399 kts 338°
2026-05-06 13:25 35.77804 24.98100 21142 ft 402 kts 338°
2026-05-06 13:25 35.80431 24.96864 21592 ft 404 kts 338°
2026-05-06 13:25 35.83063 24.95624 22038 ft 406 kts 338°
2026-05-06 13:25 35.85684 24.94386 22472 ft 408 kts 338°
2026-05-06 13:26 35.88345 24.93128 22887 ft 411 kts 338°
2026-05-06 13:26 35.91024 24.91862 23294 ft 413 kts 338°
2026-05-06 13:26 35.93718 24.90590 23686 ft 415 kts 338°
2026-05-06 13:26 35.96425 24.89313 24018 ft 417 kts 338°
2026-05-06 13:27 35.99146 24.88031 24342 ft 419 kts 338°
2026-05-06 13:27 36.01880 24.86742 24657 ft 421 kts 338°
2026-05-06 13:27 36.04596 24.85354 24964 ft 422 kts 332°
2026-05-06 13:27 36.07113 24.83476 25263 ft 423 kts 323°
2026-05-06 13:28 36.09424 24.81211 25557 ft 425 kts 321°
2026-05-06 13:28 36.11703 24.78938 25844 ft 426 kts 321°
2026-05-06 13:28 36.14021 24.76635 26126 ft 428 kts 321°
2026-05-06 13:28 36.16356 24.74323 26401 ft 430 kts 321°
2026-05-06 13:29 36.18698 24.72004 26662 ft 431 kts 321°
2026-05-06 13:29 36.21045 24.69677 26914 ft 433 kts 321°
2026-05-06 13:29 36.23402 24.67337 27158 ft 435 kts 321°
2026-05-06 13:29 36.25769 24.64984 27397 ft 436 kts 321°
2026-05-06 13:30 36.28138 24.62624 27647 ft 436 kts 321°
2026-05-06 13:30 36.30498 24.60265 27981 ft 435 kts 321°
2026-05-06 13:30 36.32853 24.57907 28300 ft 435 kts 321°
2026-05-06 13:30 36.35205 24.55554 28623 ft 434 kts 321°
2026-05-06 13:31 36.37563 24.53199 28956 ft 433 kts 321°
2026-05-06 13:31 36.39884 24.50882 29284 ft 433 kts 321°
2026-05-06 13:31 36.42227 24.48542 29615 ft 432 kts 320°
2026-05-06 13:31 36.44560 24.46203 29957 ft 431 kts 320°
2026-05-06 13:32 36.46904 24.43854 30269 ft 431 kts 320°
2026-05-06 13:32 36.49242 24.41511 30548 ft 430 kts 320°
2026-05-06 13:32 36.51568 24.39178 30837 ft 429 kts 320°
2026-05-06 13:32 36.53895 24.36841 31119 ft 429 kts 320°
2026-05-06 13:33 36.56187 24.34536 31403 ft 428 kts 320°
2026-05-06 13:33 36.58502 24.32205 31693 ft 427 kts 320°
2026-05-06 13:33 36.60816 24.29877 31990 ft 426 kts 320°
2026-05-06 13:33 36.63124 24.27549 32275 ft 426 kts 320°
2026-05-06 13:34 36.65422 24.25230 32555 ft 425 kts 320°
2026-05-06 13:34 36.67715 24.22912 32840 ft 425 kts 320°
2026-05-06 13:34 36.70014 24.20585 33130 ft 424 kts 319°
2026-05-06 13:34 36.72300 24.18269 33424 ft 423 kts 319°
2026-05-06 13:35 36.74584 24.15960 33719 ft 422 kts 319°
2026-05-06 13:35 36.76842 24.13677 33992 ft 422 kts 319°
2026-05-06 13:35 36.79126 24.11364 34075 ft 422 kts 319°
2026-05-06 13:36 36.83686 24.06735 34093 ft 421 kts 319°
2026-05-06 13:36 36.88218 24.02109 34086 ft 421 kts 319°
2026-05-06 13:37 36.92756 23.97487 34088 ft 421 kts 319°
2026-05-06 13:37 36.97270 23.92905 34087 ft 421 kts 319°
2026-05-06 13:38 37.01817 23.88275 34084 ft 421 kts 319°
2026-05-06 13:38 37.06360 23.83622 34084 ft 421 kts 319°
2026-05-06 13:39 37.10892 23.78982 34081 ft 421 kts 319°
2026-05-06 13:39 37.15402 23.74363 34081 ft 421 kts 319°
2026-05-06 13:40 37.19949 23.69695 34078 ft 421 kts 319°
2026-05-06 13:40 37.24456 23.65053 34081 ft 421 kts 319°
2026-05-06 13:41 37.28985 23.60392 34074 ft 421 kts 319°
2026-05-06 13:41 37.33521 23.55715 34077 ft 421 kts 319°
2026-05-06 13:42 37.38054 23.51031 34077 ft 421 kts 319°
2026-05-06 13:42 37.42550 23.46378 34070 ft 422 kts 318°
2026-05-06 13:43 37.47082 23.41682 34073 ft 422 kts 318°
2026-05-06 13:43 37.51620 23.36971 34071 ft 422 kts 318°
2026-05-06 13:44 37.56154 23.32256 34066 ft 422 kts 318°
2026-05-06 13:44 37.60683 23.27539 34074 ft 422 kts 318°
2026-05-06 13:45 37.65179 23.22837 34069 ft 422 kts 318°
2026-05-06 13:45 37.71992 23.15718 34070 ft 423 kts 318°
2026-05-06 13:46 37.76502 23.10997 34058 ft 423 kts 318°
2026-05-06 13:46 37.81037 23.06227 34059 ft 423 kts 318°
2026-05-06 13:47 37.85545 23.01494 34062 ft 423 kts 318°
2026-05-06 13:47 37.90084 22.96716 34061 ft 423 kts 318°
2026-05-06 13:48 37.94615 22.91936 34065 ft 423 kts 318°
2026-05-06 13:48 37.99144 22.87175 34064 ft 424 kts 318°
2026-05-06 13:49 38.03659 22.82430 34065 ft 424 kts 318°
2026-05-06 13:49 38.08208 22.77646 34066 ft 424 kts 317°
2026-05-06 13:50 38.12754 22.72850 34064 ft 425 kts 317°
2026-05-06 13:50 38.17300 22.68033 34070 ft 425 kts 317°
2026-05-06 13:51 38.21840 22.63218 34067 ft 425 kts 317°
2026-05-06 13:51 38.26357 22.58417 34066 ft 425 kts 317°
2026-05-06 13:52 38.30899 22.53595 34064 ft 425 kts 317°
2026-05-06 13:52 38.35441 22.48761 34069 ft 424 kts 317°
2026-05-06 13:53 38.39971 22.43923 34069 ft 424 kts 317°
2026-05-06 13:53 38.44469 22.39114 34067 ft 424 kts 317°
2026-05-06 13:54 38.48999 22.34273 34065 ft 423 kts 317°
2026-05-06 13:54 38.53515 22.29437 34076 ft 423 kts 317°
2026-05-06 13:55 38.58003 22.24615 34081 ft 423 kts 317°
2026-05-06 13:55 38.62518 22.19751 34072 ft 424 kts 317°
2026-05-06 13:56 38.67033 22.14886 34083 ft 423 kts 317°
2026-05-06 13:56 38.71507 22.10066 34076 ft 423 kts 317°
2026-05-06 13:57 38.76025 22.05182 34082 ft 424 kts 317°
2026-05-06 13:57 38.80526 22.00302 34078 ft 424 kts 317°
2026-05-06 13:58 38.85042 21.95412 34080 ft 424 kts 317°
2026-05-06 13:58 38.89524 21.90541 34082 ft 425 kts 316°
2026-05-06 13:59 38.94030 21.85628 34086 ft 424 kts 316°
2026-05-06 13:59 38.98534 21.80703 34079 ft 424 kts 316°
2026-05-06 14:00 39.03039 21.75780 34087 ft 425 kts 316°
2026-05-06 14:00 39.07521 21.70880 34076 ft 425 kts 316°
2026-05-06 14:01 39.12036 21.65938 34083 ft 426 kts 316°
2026-05-06 14:01 39.16554 21.60976 34089 ft 426 kts 316°
2026-05-06 14:02 39.21068 21.56015 34084 ft 427 kts 316°
2026-05-06 14:02 39.25559 21.51069 34094 ft 427 kts 316°
2026-05-06 14:03 39.30083 21.46075 34094 ft 427 kts 316°
2026-05-06 14:03 39.34598 21.41082 34095 ft 426 kts 316°
2026-05-06 14:04 39.39098 21.36091 34093 ft 426 kts 316°
2026-05-06 14:04 39.43576 21.31118 34098 ft 426 kts 316°
2026-05-06 14:05 39.47344 21.26931 34102 ft 426 kts 316°
2026-05-06 14:05 39.51808 21.21959 34097 ft 425 kts 316°
2026-05-06 14:06 39.56301 21.16942 34099 ft 425 kts 316°
2026-05-06 14:06 39.60782 21.11930 34110 ft 425 kts 316°
2026-05-06 14:07 39.65228 21.06960 34109 ft 425 kts 316°
2026-05-06 14:07 39.69717 21.01931 34108 ft 425 kts 316°
2026-05-06 14:08 39.74192 20.96893 34110 ft 425 kts 316°
2026-05-06 14:08 39.78658 20.91866 34110 ft 425 kts 316°
2026-05-06 14:09 39.83108 20.86859 34108 ft 426 kts 316°
2026-05-06 14:09 39.87592 20.81789 34106 ft 426 kts 316°
2026-05-06 14:10 39.92065 20.76721 34100 ft 426 kts 316°
2026-05-06 14:10 39.96544 20.71656 34096 ft 426 kts 316°
2026-05-06 14:11 40.01023 20.66577 34090 ft 426 kts 316°
2026-05-06 14:11 40.05459 20.61521 34087 ft 426 kts 316°
2026-05-06 14:12 40.09989 20.56485 34084 ft 427 kts 318°
2026-05-06 14:12 40.14686 20.51708 34085 ft 428 kts 320°
2026-05-06 14:13 40.19404 20.46990 34080 ft 428 kts 319°
2026-05-06 14:13 40.24108 20.42189 34078 ft 428 kts 319°
2026-05-06 14:14 40.28770 20.37354 34084 ft 427 kts 319°
2026-05-06 14:14 40.33439 20.32511 34081 ft 428 kts 319°
2026-05-06 14:15 40.38084 20.27707 34083 ft 427 kts 319°
2026-05-06 14:15 40.42750 20.22862 34080 ft 428 kts 319°
2026-05-06 14:16 40.47438 20.17987 34078 ft 429 kts 319°
2026-05-06 14:16 40.52122 20.13115 34082 ft 429 kts 319°
2026-05-06 14:17 40.56788 20.08251 34081 ft 430 kts 319°
2026-05-06 14:17 40.61482 20.03340 34083 ft 431 kts 319°
2026-05-06 14:18 40.66184 19.98410 34084 ft 431 kts 319°
2026-05-06 14:18 40.70852 19.93516 34082 ft 432 kts 319°
2026-05-06 14:19 40.75561 19.88573 34080 ft 432 kts 319°
2026-05-06 14:19 40.80274 19.83608 34082 ft 433 kts 319°
2026-05-06 14:20 40.84963 19.78654 34085 ft 433 kts 319°
2026-05-06 14:20 40.89675 19.73670 34086 ft 433 kts 319°
2026-05-06 14:21 40.93610 19.69508 34091 ft 434 kts 319°
2026-05-06 14:21 40.97307 19.65593 34086 ft 434 kts 319°
2026-05-06 14:22 41.01994 19.60611 34085 ft 434 kts 318°
2026-05-06 14:22 41.06703 19.55595 34089 ft 434 kts 318°
2026-05-06 14:23 41.11408 19.50570 34091 ft 434 kts 318°
2026-05-06 14:23 41.16120 19.45536 34086 ft 433 kts 318°
2026-05-06 14:24 41.20786 19.40548 34092 ft 433 kts 318°
2026-05-06 14:24 41.25471 19.35524 34085 ft 433 kts 317°
2026-05-06 14:25 41.30159 19.30482 34092 ft 432 kts 317°
2026-05-06 14:25 41.34839 19.25445 34086 ft 432 kts 317°
2026-05-06 14:26 41.39511 19.20407 34093 ft 432 kts 317°
2026-05-06 14:26 41.44157 19.15389 34084 ft 431 kts 317°
2026-05-06 14:27 41.48815 19.10342 34084 ft 431 kts 317°
2026-05-06 14:27 41.53478 19.05278 34081 ft 431 kts 317°
2026-05-06 14:28 41.58135 19.00220 34079 ft 432 kts 317°
2026-05-06 14:28 41.62794 18.95144 34078 ft 432 kts 317°
2026-05-06 14:29 41.67433 18.90086 34078 ft 432 kts 316°
2026-05-06 14:29 41.72081 18.85001 34079 ft 432 kts 316°
2026-05-06 14:30 41.76742 18.79899 34078 ft 432 kts 316°
2026-05-06 14:30 41.81401 18.74783 34078 ft 432 kts 316°
2026-05-06 14:31 41.86034 18.69687 34077 ft 432 kts 316°
2026-05-06 14:31 41.90694 18.64558 34077 ft 433 kts 316°
2026-05-06 14:32 41.95358 18.59417 34078 ft 433 kts 316°
2026-05-06 14:32 42.00022 18.54248 34072 ft 433 kts 316°
2026-05-06 14:33 42.04081 18.48399 34073 ft 428 kts 306°
2026-05-06 14:33 42.07886 18.42216 34074 ft 429 kts 306°
2026-05-06 14:34 42.11693 18.36038 34069 ft 429 kts 306°
2026-05-06 14:34 42.15504 18.29844 34068 ft 429 kts 306°
2026-05-06 14:35 42.19302 18.23646 34070 ft 429 kts 306°
2026-05-06 14:35 42.23106 18.17426 34071 ft 429 kts 306°
2026-05-06 14:36 42.26879 18.11240 34070 ft 429 kts 306°
2026-05-06 14:36 42.30673 18.05008 34066 ft 429 kts 306°
2026-05-06 14:37 42.34465 17.98766 34066 ft 429 kts 306°
2026-05-06 14:37 42.38246 17.92527 34060 ft 429 kts 306°
2026-05-06 14:38 42.42005 17.86315 34053 ft 429 kts 306°
2026-05-06 14:38 42.45783 17.80066 34054 ft 429 kts 306°
2026-05-06 14:39 42.49555 17.73803 34048 ft 428 kts 306°
2026-05-06 14:39 42.53324 17.67540 34053 ft 428 kts 306°
2026-05-06 14:40 42.57067 17.61298 34047 ft 428 kts 306°
2026-05-06 14:40 42.60832 17.55011 34043 ft 429 kts 306°
2026-05-06 14:41 42.64595 17.48700 34048 ft 429 kts 306°
2026-05-06 14:41 42.68367 17.42374 34038 ft 430 kts 306°
2026-05-06 14:42 42.72138 17.36045 34039 ft 431 kts 306°
2026-05-06 14:42 42.75881 17.29740 34036 ft 431 kts 306°
2026-05-06 14:43 42.79652 17.23373 34034 ft 432 kts 306°
2026-05-06 14:43 42.83426 17.16992 34031 ft 431 kts 305°
2026-05-06 14:44 42.87189 17.10607 34031 ft 431 kts 305°
2026-05-06 14:45 42.92802 17.01072 34031 ft 431 kts 305°
2026-05-06 14:45 42.95920 16.95764 34029 ft 430 kts 305°
2026-05-06 14:46 42.99661 16.89383 34028 ft 430 kts 304°
2026-05-06 14:46 43.03390 16.82988 34036 ft 430 kts 304°
2026-05-06 14:47 43.07113 16.76595 34040 ft 430 kts 304°
2026-05-06 14:47 43.10845 16.70191 34044 ft 430 kts 304°
2026-05-06 14:48 43.14572 16.63771 34047 ft 429 kts 304°
2026-05-06 14:48 43.18265 16.57398 34050 ft 429 kts 304°
2026-05-06 14:49 43.21978 16.50977 34051 ft 429 kts 304°
2026-05-06 14:49 43.25681 16.44550 34048 ft 428 kts 304°
2026-05-06 14:50 43.29377 16.38126 34035 ft 428 kts 304°
2026-05-06 14:50 43.33045 16.31762 34022 ft 427 kts 303°
2026-05-06 14:51 43.36722 16.25348 34025 ft 426 kts 303°
2026-05-06 14:51 43.40382 16.18939 34027 ft 426 kts 303°
2026-05-06 14:52 43.44043 16.12525 34022 ft 425 kts 303°
2026-05-06 14:52 43.47689 16.06114 34021 ft 425 kts 303°
2026-05-06 14:53 43.51309 15.99744 34017 ft 424 kts 303°
2026-05-06 14:53 43.54946 15.93330 34010 ft 424 kts 303°
2026-05-06 14:54 43.58577 15.86907 33996 ft 423 kts 303°
2026-05-06 14:54 43.62180 15.80522 33987 ft 423 kts 302°
2026-05-06 14:55 43.65794 15.74109 33985 ft 422 kts 302°
2026-05-06 14:55 43.69394 15.67712 33988 ft 421 kts 302°
2026-05-06 14:56 43.72987 15.61295 33977 ft 421 kts 302°
2026-05-06 14:56 43.76543 15.54923 33981 ft 421 kts 302°
2026-05-06 14:57 43.80127 15.48500 33987 ft 421 kts 302°
2026-05-06 14:57 43.83711 15.42068 33991 ft 420 kts 302°
2026-05-06 14:58 43.87282 15.35648 33985 ft 420 kts 302°
2026-05-06 14:58 43.90824 15.29262 33989 ft 420 kts 301°
2026-05-06 14:59 43.94378 15.22823 33998 ft 420 kts 301°
2026-05-06 14:59 43.97944 15.16368 33992 ft 420 kts 301°
2026-05-06 15:00 44.01500 15.09921 33986 ft 420 kts 301°
2026-05-06 15:00 44.05053 15.03452 33983 ft 421 kts 301°
2026-05-06 15:01 44.08564 14.97048 33980 ft 421 kts 301°
2026-05-06 15:01 44.12132 14.90542 33971 ft 422 kts 301°
2026-05-06 15:02 44.15685 14.84034 33968 ft 422 kts 301°
2026-05-06 15:02 44.19239 14.77516 33964 ft 423 kts 301°
2026-05-06 15:03 44.22775 14.71010 33966 ft 423 kts 301°
2026-05-06 15:03 44.26337 14.64435 33959 ft 423 kts 300°
2026-05-06 15:04 44.29864 14.57912 33968 ft 424 kts 301°
2026-05-06 15:04 44.33420 14.51317 33961 ft 425 kts 301°
2026-05-06 15:05 44.36986 14.44696 33963 ft 426 kts 301°
2026-05-06 15:05 44.40556 14.38065 33953 ft 427 kts 301°
2026-05-06 15:06 44.44103 14.31455 33958 ft 427 kts 301°
2026-05-06 15:06 44.47666 14.24794 33957 ft 428 kts 301°
2026-05-06 15:07 44.51238 14.18098 33958 ft 428 kts 301°
2026-05-06 15:07 44.54803 14.11386 33957 ft 429 kts 301°
2026-05-06 15:08 44.58312 14.04785 33952 ft 430 kts 301°
2026-05-06 15:08 44.61867 13.98086 33953 ft 431 kts 301°
2026-05-06 15:09 44.65444 13.91322 33949 ft 431 kts 301°
2026-05-06 15:09 44.69025 13.84534 33950 ft 431 kts 301°
2026-05-06 15:10 44.72580 13.77779 33950 ft 432 kts 301°
2026-05-06 15:10 44.76154 13.70968 33947 ft 432 kts 300°
2026-05-06 15:11 44.79736 13.64136 33946 ft 433 kts 300°
2026-05-06 15:11 44.83311 13.57295 33944 ft 434 kts 300°
2026-05-06 15:12 44.86899 13.50447 33937 ft 434 kts 301°
2026-05-06 15:12 44.90513 13.43657 33932 ft 435 kts 301°
2026-05-06 15:13 44.94146 13.36825 33927 ft 435 kts 300°
2026-05-06 15:13 44.97787 13.29949 33922 ft 436 kts 300°
2026-05-06 15:14 45.01393 13.23105 33917 ft 436 kts 300°
2026-05-06 15:14 45.05017 13.16208 33916 ft 436 kts 300°
2026-05-06 15:15 45.08644 13.09306 33907 ft 436 kts 300°
2026-05-06 15:15 45.12259 13.02398 33904 ft 436 kts 300°
2026-05-06 15:16 45.15843 12.95529 33903 ft 436 kts 300°
2026-05-06 15:16 45.19448 12.88604 33897 ft 435 kts 299°
2026-05-06 15:17 45.23047 12.81683 33893 ft 435 kts 299°
2026-05-06 15:17 45.26640 12.74758 33893 ft 435 kts 299°
2026-05-06 15:18 45.30218 12.67842 33903 ft 435 kts 299°
2026-05-06 15:18 45.33799 12.60894 33891 ft 435 kts 299°
2026-05-06 15:19 45.37374 12.53936 33893 ft 435 kts 298°
2026-05-06 15:19 45.40950 12.46970 33895 ft 436 kts 298°
2026-05-06 15:20 45.44510 12.40030 33895 ft 437 kts 298°
2026-05-06 15:20 45.48095 12.33012 33897 ft 437 kts 298°
2026-05-06 15:21 45.51656 12.26026 33895 ft 438 kts 298°
2026-05-06 15:21 45.55234 12.18987 33896 ft 438 kts 298°
2026-05-06 15:22 45.58806 12.11938 33894 ft 438 kts 298°
2026-05-06 15:22 45.62383 12.04872 33924 ft 439 kts 298°
2026-05-06 15:23 45.65938 11.97827 33924 ft 439 kts 297°
2026-05-06 15:23 45.69499 11.90751 33921 ft 439 kts 297°
2026-05-06 15:24 45.73065 11.83646 33920 ft 439 kts 297°
2026-05-06 15:24 45.76628 11.76527 33917 ft 439 kts 297°
2026-05-06 15:25 45.80161 11.69441 33920 ft 440 kts 297°
2026-05-06 15:25 45.83724 11.62300 33920 ft 439 kts 296°
2026-05-06 15:26 45.86679 11.56370 33926 ft 439 kts 296°
2026-05-06 15:26 45.90793 11.48052 33920 ft 439 kts 296°
2026-05-06 15:27 45.93756 11.42045 33922 ft 439 kts 296°
2026-05-06 15:27 45.97272 11.34917 33923 ft 439 kts 296°
2026-05-06 15:28 46.00812 11.27743 33930 ft 439 kts 296°
2026-05-06 15:28 46.04347 11.20543 33934 ft 440 kts 296°
2026-05-06 15:29 46.07873 11.13335 33944 ft 439 kts 296°
2026-05-06 15:29 46.11388 11.06131 33956 ft 439 kts 295°
2026-05-06 15:30 46.14878 10.98972 33957 ft 439 kts 295°
2026-05-06 15:30 46.18387 10.91750 33956 ft 439 kts 295°
2026-05-06 15:31 46.21842 10.84487 33949 ft 434 kts 291°
2026-05-06 15:31 46.24464 10.76817 33946 ft 427 kts 286°
2026-05-06 15:32 46.26999 10.69052 33814 ft 425 kts 286°
2026-05-06 15:32 46.28258 10.65185 32884 ft 425 kts 285°
2026-05-06 15:32 46.29518 10.61297 31899 ft 428 kts 286°
2026-05-06 15:32 46.30785 10.57392 30895 ft 430 kts 286°
2026-05-06 15:33 46.32063 10.53449 30258 ft 433 kts 286°
2026-05-06 15:33 46.33346 10.49488 30028 ft 436 kts 286°
2026-05-06 15:33 46.34637 10.45501 29872 ft 437 kts 286°
2026-05-06 15:33 46.35927 10.41509 29927 ft 438 kts 286°
2026-05-06 15:34 46.38516 10.33489 29912 ft 440 kts 286°
2026-05-06 15:34 46.41085 10.25483 29920 ft 441 kts 286°
2026-05-06 15:35 46.43670 10.17411 29917 ft 441 kts 286°
2026-05-06 15:35 46.46252 10.09326 29921 ft 441 kts 286°
2026-05-06 15:36 46.48879 10.01278 29920 ft 444 kts 288°
2026-05-06 15:36 46.51843 9.93393 29925 ft 448 kts 291°
2026-05-06 15:37 46.54954 9.85540 29920 ft 448 kts 291°
2026-05-06 15:37 46.58015 9.77642 29909 ft 448 kts 290°
2026-05-06 15:38 46.61018 9.69669 29919 ft 448 kts 290°
2026-05-06 15:38 46.63987 9.61736 29910 ft 448 kts 290°
2026-05-06 15:39 46.66971 9.53757 29905 ft 448 kts 290°
2026-05-06 15:39 46.69962 9.45785 29892 ft 447 kts 290°
2026-05-06 15:40 46.72915 9.37878 29889 ft 447 kts 290°
2026-05-06 15:40 46.75888 9.29881 29884 ft 448 kts 290°
2026-05-06 15:41 46.78858 9.21864 29889 ft 448 kts 290°
2026-05-06 15:41 46.81819 9.13845 29890 ft 449 kts 290°
2026-05-06 15:42 46.84754 9.05864 29899 ft 449 kts 290°
2026-05-06 15:42 46.87717 8.97802 29892 ft 450 kts 290°
2026-05-06 15:43 46.89198 8.93769 29708 ft 450 kts 290°
2026-05-06 15:43 46.90678 8.89741 28695 ft 450 kts 290°
2026-05-06 15:43 46.92276 8.85755 27395 ft 460 kts 298°
2026-05-06 15:43 46.94353 8.82110 26110 ft 471 kts 310°
2026-05-06 15:44 46.96908 8.79030 24872 ft 481 kts 321°
2026-05-06 15:44 46.99830 8.76684 23679 ft 490 kts 333°
2026-05-06 15:44 47.03094 8.75135 22277 ft 496 kts 345°
2026-05-06 15:44 47.06522 8.74446 21022 ft 489 kts 352°
2026-05-06 15:45 47.09846 8.73842 19668 ft 474 kts 349°
2026-05-06 15:45 47.13020 8.73074 18916 ft 448 kts 348°
2026-05-06 15:45 47.16027 8.72234 18103 ft 432 kts 347°
2026-05-06 15:45 47.18986 8.71357 17281 ft 434 kts 346°
2026-05-06 15:46 47.21940 8.70485 16532 ft 431 kts 347°
2026-05-06 15:46 47.24843 8.69647 15792 ft 428 kts 346°
2026-05-06 15:46 47.27687 8.68456 15085 ft 423 kts 338°
2026-05-06 15:46 47.30372 8.66755 14384 ft 418 kts 333°
2026-05-06 15:47 47.32999 8.64965 13711 ft 413 kts 333°
2026-05-06 15:47 47.35599 8.63186 12990 ft 408 kts 332°
2026-05-06 15:47 47.38110 8.61297 12333 ft 400 kts 326°
2026-05-06 15:47 47.40474 8.59190 11648 ft 394 kts 325°
2026-05-06 15:48 47.42655 8.56831 11145 ft 379 kts 314°
2026-05-06 15:48 47.44337 8.54051 11017 ft 356 kts 302°
2026-05-06 15:48 47.45562 8.50988 10892 ft 334 kts 291°
2026-05-06 15:48 47.46317 8.47843 10771 ft 315 kts 281°
2026-05-06 15:49 47.46679 8.44732 10646 ft 299 kts 275°
2026-05-06 15:49 47.46964 8.41754 10524 ft 287 kts 275°
2026-05-06 15:49 47.47244 8.38876 10342 ft 279 kts 275°
2026-05-06 15:49 47.47513 8.36102 10168 ft 274 kts 275°
2026-05-06 15:50 47.47780 8.33323 9928 ft 272 kts 275°
2026-05-06 15:50 47.48044 8.30560 9756 ft 271 kts 275°
2026-05-06 15:50 47.48304 8.27810 9625 ft 270 kts 274°
2026-05-06 15:50 47.48563 8.25058 9489 ft 270 kts 274°
2026-05-06 15:51 47.48822 8.22286 9034 ft 273 kts 275°
2026-05-06 15:51 47.49083 8.19518 8624 ft 271 kts 275°
2026-05-06 15:51 47.49344 8.16759 8223 ft 269 kts 275°
2026-05-06 15:51 47.49604 8.14007 7710 ft 270 kts 275°
2026-05-06 15:52 47.49859 8.11313 7409 ft 256 kts 275°
2026-05-06 15:52 47.50116 8.08788 7050 ft 244 kts 280°
2026-05-06 15:52 47.50860 8.06591 6942 ft 241 kts 307°
2026-05-06 15:52 47.52242 8.05073 6900 ft 257 kts 334°
2026-05-06 15:53 47.54020 8.04767 6668 ft 264 kts
2026-05-06 15:53 47.55690 8.05887 6433 ft 268 kts 40°
2026-05-06 15:53 47.56742 8.08143 6200 ft 268 kts 73°
2026-05-06 15:53 47.56864 8.10841 5965 ft 263 kts 106°
2026-05-06 15:54 47.56187 8.13326 5746 ft 260 kts 120°
2026-05-06 15:54 47.55484 8.15797 5514 ft 262 kts 107°
2026-05-06 15:54 47.55293 8.18492 5287 ft 265 kts 87°
2026-05-06 15:54 47.55694 8.21122 5063 ft 267 kts 68°
2026-05-06 15:55 47.56453 8.23613 4888 ft 260 kts 65°
2026-05-06 15:55 47.57175 8.25993 4804 ft 248 kts 66°
2026-05-06 15:55 47.57867 8.28302 4712 ft 244 kts 66°
2026-05-06 15:55 47.58553 8.30600 4618 ft 242 kts 66°
2026-05-06 15:56 47.59222 8.32829 4517 ft 232 kts 65°
2026-05-06 15:56 47.59773 8.35023 4422 ft 222 kts 83°
2026-05-06 15:56 47.59653 8.37203 4367 ft 206 kts 112°
2026-05-06 15:56 47.58931 8.38910 4234 ft 187 kts 141°
2026-05-06 15:57 47.58020 8.40172 4074 ft 172 kts 143°
2026-05-06 15:57 47.57173 8.41332 3873 ft 160 kts 143°
2026-05-06 15:57 47.56377 8.42423 3671 ft 153 kts 143°
2026-05-06 15:57 47.55601 8.43485 3468 ft 151 kts 144°
2026-05-06 15:58 47.54834 8.44536 3291 ft 148 kts 143°
2026-05-06 15:58 47.54073 8.45578 3071 ft 148 kts 143°